Weather in Komsomolsk

Russia / Kemerovo Oblast     55°37′48″N   88°10′54″E
temp.,
°C
wind,
m/s
gust,
m/s
humid.,
%
clouds,
%
prec.,
mm/h
press.,
hPa
HPBL,
m
19 april, mon
mon1901:00+2ssw41390100 1.0 1003762
04:00+2ssw41497100 1.3 997713
07:00+1wsw71597100 3.6 9951150
10:00−6w111885100 0.6 10021333
13:00−7wnw101582100 1.1 10131352
16:00−5wnw81264100 0.3 10181692
19:00−6wnw61168100 0.3 10201473
22:00−9w5108099 0.1 1022973
20 april, tue
tue2001:00−11w598236 0.2 1023666
04:00−13wsw5118455 0.0 1024467
07:00−12wsw5128427 0.0 1024612
10:00−7w6970100 0.0 10241143
13:00−4w6856100 0.1 10231608
16:00−3w6753100 0.1 10231916
19:00−4w476299 0.1 10231123
22:00−7wsw257877 0.1 1025151
21 april, wed
wed2101:00−9ssw23805 0.1 102576
04:00−11ssw247527 0.0 102579
07:00−8s2468100 0.0 1025119
10:00−3ssw2454100 0.0 1025821
13:00−1sw1253100 0.1 10241335
16:00−1ne1155100 0.2 10241196
19:00−1ene345586 0.3 1026870
22:00−4ene256981 0.0 1028155
22 april, thu
thu2201:00−6ene247614 0.0 1029133
04:00−7ne12865 0.0 103173
07:00−6ne158298 0.0 1033213
10:00−1ne455959 0.0 10351194
13:00+1nne3549100 0.1 10351733
16:00+2nne4562100 0.1 10371394
19:00+1nne3669100 0.5 1039720
22:00−2nne268863 0.3 1042185
23 april, fri
fri2301:00−4nne139390 0.3 104383
04:00−4nne149578 0.1 1043136
07:00−3ne259184 0.2 1044265
10:00+1ene467386 0.0 10441051
13:00+4ene6858100 0.1 10421634
16:00+5ene6854100 0.0 10411536
19:00+4ne596360 0.0 1040938
22:000ne4128264 0.0 1040336